Weather History for Ephrata, WA

Change the Weather History Date:

Friday, January 10, 2014

  Actual Average Record
Temperature  
Mean Temperature 38 °F 28 °F  
Max Temperature 54 °F 34 °F 54 °F (2014)
Min Temperature 22 °F 22 °F -11 °F (1974)
Degree Days  
Heating Degree Days 27 37  
Month to date heating degree days 344 379  
Since 1 July heating degree days 2929 2965  
Cooling Degree Days 0 0  
Month to date cooling degree days 0 0  
Year to date cooling degree days 0 0  
Moisture  
Dew Point 29 °F    
Average Humidity 69    
Maximum Humidity 92    
Minimum Humidity 45    
Precipitation  
Precipitation T in 0.04 in 0.20 in (1995)
Month to date precipitation 0.02 0.34  
Year to date precipitation 0.02 0.34  
Sea Level Pressure  
Sea Level Pressure 29.86 in    
Wind  
Wind Speed 6 mph (SW)    
Max Wind Speed 18 mph    
Max Gust Speed 24 mph    
Visibility 10 miles    
Events Rain    
T = Trace of Precipitation, MM = Missing Value Source: NWS Daily Summary

Daily Weather History Graph

Daily Weather History Graph

Search for Another Location

Airport:

Trip Planner

Search our weather history database for the weather conditions in past years. The results will help you decide how hot, cold, wet, or windy it might be!

Date:

Astronomy

Jan. 10, 2014 Rise Set
Actual Time 7:43 AM PST 4:28 PM PST
Civil Twilight 7:08 AM PST 5:03 PM PST
Nautical Twilight 6:29 AM PST 5:41 PM PST
Astronomical Twilight 5:52 AM PST 6:18 PM PST
Moon 12:41 PM PST (1/10) 2:49 AM PST (1/10)
Length of Visible Light 9h 55m
Length of Day
8h 45m
Waxing Gibbous, 76% of the Moon is Illuminated
Jan 10
Waxing Gibbous
Jan 15
Full
Jan 23
Last Quarter
Jan 30
New
Feb 6
First Quarter

Hourly Weather History & Observations

Time (PST) Temp. Windchill Dew Point Humidity Pressure Visibility Wind Dir Wind Speed Gust Speed Precip Events Conditions
12:53 AM 25.0 °F - 23.0 °F 92% 29.77 in 10.0 mi Calm Calm - N/A   Clear
1:53 AM 24.1 °F - 21.9 °F 91% 29.79 in 10.0 mi Calm Calm - N/A   Clear
2:53 AM 27.0 °F 21.6 °F 24.1 °F 89% 29.80 in 10.0 mi South 4.6 mph - N/A   Clear
3:53 AM 27.0 °F 19.5 °F 24.1 °F 89% 29.81 in 10.0 mi South 6.9 mph - N/A   Clear
4:53 AM 27.0 °F 20.5 °F 24.1 °F 89% 29.81 in 10.0 mi Variable 5.8 mph - N/A   Clear
5:53 AM 27.0 °F 23.0 °F 24.1 °F 89% 29.82 in 10.0 mi Variable 3.5 mph - N/A   Clear
6:53 AM 26.1 °F 19.4 °F 23.0 °F 88% 29.84 in 10.0 mi NNE 5.8 mph - N/A   Clear
7:53 AM 25.0 °F 17.1 °F 23.0 °F 92% 29.86 in 10.0 mi North 6.9 mph - N/A   Clear
8:53 AM 27.0 °F 19.5 °F 24.1 °F 89% 29.90 in 10.0 mi NNW 6.9 mph - N/A   Clear
9:53 AM 34.0 °F - 30.0 °F 85% 29.92 in 10.0 mi Calm Calm - N/A   Clear
10:53 AM 37.9 °F 34.4 °F 32.0 °F 79% 29.93 in 10.0 mi North 4.6 mph - N/A   Partly Cloudy
11:53 AM 45.0 °F 43.5 °F 34.0 °F 65% 29.92 in 10.0 mi Variable 3.5 mph - N/A   Mostly Cloudy
12:53 PM 53.1 °F - 32.0 °F 45% 29.90 in 10.0 mi SW 12.7 mph - N/A   Clear
1:53 PM 53.1 °F - 32.0 °F 45% 29.91 in 10.0 mi SSW 15.0 mph - N/A   Mostly Cloudy
2:53 PM 50.0 °F - 32.0 °F 50% 29.90 in 10.0 mi SW 17.3 mph - N/A   Overcast
3:53 PM 48.0 °F - 30.9 °F 52% 29.92 in 10.0 mi SW 13.8 mph - N/A   Overcast
4:53 PM 46.9 °F - 28.9 °F 50% 29.92 in 10.0 mi SW 8.1 mph - N/A   Overcast
5:53 PM 45.0 °F 39.7 °F 30.0 °F 56% 29.91 in 10.0 mi WSW 10.4 mph - N/A   Overcast
6:53 PM 44.1 °F 39.5 °F 32.0 °F 63% 29.90 in 10.0 mi SW 8.1 mph - N/A   Overcast
7:53 PM 39.9 °F 35.8 °F 30.9 °F 70% 29.88 in 10.0 mi SSE 5.8 mph - N/A   Overcast
8:53 PM 39.9 °F 35.1 °F 32.0 °F 73% 29.86 in 10.0 mi SSW 6.9 mph - N/A   Overcast
9:53 PM 39.0 °F 33.4 °F 32.0 °F 76% 29.81 in 10.0 mi South 8.1 mph - N/A   Overcast
10:53 PM 39.0 °F - 33.1 °F 79% 29.77 in 10.0 mi Calm Calm - 0.00 in Rain Light Rain
11:53 PM 36.0 °F - 32.0 °F 86% 29.72 in 10.0 mi Calm Calm - 0.00 in   Clear